This is the latest recevied weather packets stored in our database for station/object KD4EG. If no packets are shown the sender has not sent any weather packets the latest 10 day(s).
| Time | Temp. | Humidity | Pressure | Rain* | Wind** | Luminosity | Snow |
|---|---|---|---|---|---|---|---|
| 1778011044 | 27.22° C | 27% | 1013.8 hPa | 0 mm | - | 302 W/m² | - |
| 1778010742 | 27.22° C | 27% | 1014.1 hPa | 0 mm | - | 439 W/m² | - |
| 1778010439 | 27.22° C | 25% | 1014 hPa | 0 mm | - | 538 W/m² | - |
| 1778010135 | 27.22° C | 25% | 1014.2 hPa | 0 mm | - | 560 W/m² | - |
| 1778009831 | 27.22° C | 23% | 1014.1 hPa | 0 mm | - | 561 W/m² | - |
| 1778009528 | 27.78° C | 23% | 1014.2 hPa | 0 mm | - | 567 W/m² | - |
| 1778009227 | 27.78° C | 23% | 1014.2 hPa | 0 mm | - | 604 W/m² | - |
| 1778008924 | 27.78° C | 24% | 1013.8 hPa | 0 mm | - | 597 W/m² | - |
| 1778008622 | 27.78° C | 23% | 1014.1 hPa | 0 mm | - | 637 W/m² | - |
| 1778008320 | 27.78° C | 24% | 1014.1 hPa | 0 mm | - | 636 W/m² | - |
| 1778008016 | 27.22° C | 26% | 1014.1 hPa | 0 mm | - | 668 W/m² | - |
| 1778007716 | 27.78° C | 29% | 1014.2 hPa | 0 mm | - | 638 W/m² | - |
| 1778007413 | 26.67° C | 30% | 1014 hPa | 0 mm | - | 526 W/m² | - |
| 1778007109 | 27.22° C | 34% | 1014.3 hPa | 0 mm | - | 660 W/m² | - |
| 1778006805 | 27.22° C | 36% | 1014.3 hPa | 0 mm | - | 691 W/m² | - |
| 1778006503 | 26.67° C | 39% | 1014.5 hPa | 0 mm | - | 774 W/m² | - |
| 1778006200 | 26.11° C | 39% | 1014.5 hPa | 0 mm | - | 580 W/m² | - |
| 1778005897 | 26.11° C | 39% | 1014.7 hPa | 0 mm | - | 468 W/m² | - |
| 1778005593 | 25.56° C | 41% | 1014.7 hPa | 0 mm | - | 492 W/m² | - |
| 1778005290 | 25.56° C | 41% | 1014.9 hPa | 0 mm | - | 572 W/m² | - |
| 1778004987 | 25.56° C | 42% | 1014.8 hPa | 0 mm | - | 506 W/m² | - |
| 1778004684 | 25.56° C | 42% | 1015.4 hPa | 0 mm | - | 318 W/m² | - |
| 1778004380 | 25.56° C | 41% | 1015 hPa | 0 mm | - | 325 W/m² | - |
| 1778004078 | 25.56° C | 41% | 1015.1 hPa | 0 mm | - | 516 W/m² | - |
| 1778003774 | 26.11° C | 36% | 1015 hPa | 0 mm | - | 266 W/m² | - |
* Rain latest hour (hover to see other rain measurements)
** Current wind speed in m/s (hover to see current wind gust speed)